Weather History for Cozumel, Mexico

Change the Weather History Date:

Wednesday, October 17, 2012

  Actual Average Record
Temperature  
Mean Temperature 78 °F -  
Max Temperature 84 °F 86 °F 89 °F (1999)
Min Temperature 71 °F 76 °F 64 °F (2013)
Cooling Degree Days 12    
Growing Degree Days 28 (Base 50)    
Moisture  
Dew Point 72 °F    
Average Humidity 87    
Maximum Humidity 100    
Minimum Humidity 58    
Precipitation  
Precipitation 0.00 in - - ()
Sea Level Pressure  
Sea Level Pressure 29.84 in    
Wind  
Wind Speed 4 mph ()    
Max Wind Speed 9 mph    
Max Gust Speed -    
Visibility 7.5 miles    
Events      
Averages and records for this station are not official NWS values.
T = Trace of Precipitation, MM = Missing Value Source: Averaged Metar Reports

Daily Weather History Graph

Daily Weather History Graph

Search for Another Location

Airport:

Trip Planner

Search our weather history database for the weather conditions in past years. The results will help you decide how hot, cold, wet, or windy it might be!

Date:

Astronomy

Oct. 17, 2012 Rise Set
Actual Time 6:43 AM CDT 6:21 PM CDT
Civil Twilight 6:21 AM CDT 6:44 PM CDT
Nautical Twilight 5:55 AM CDT 7:09 PM CDT
Astronomical Twilight 5:29 AM CDT 7:35 PM CDT
Moon 8:55 AM CDT (10/17) 8:21 PM CDT (10/17)
Length of Visible Light 12h 22m
Length of Day
11h 38m
Waxing Crescent, 7% of the Moon is Illuminated
Oct 17
Waxing Crescent
Oct 21
First Quarter
Oct 29
Full
Nov 6
Last Quarter
Nov 13
New

Hourly Weather History & Observations

Time (CDT) Temp. Heat Index Dew Point Humidity Pressure Visibility Wind Dir Wind Speed Gust Speed Precip Events Conditions
12:48 AM 75.2 °F - 73.4 °F 94% 29.81 in 7.0 mi North 5.8 mph - N/A   Clear
1:45 AM 75.2 °F - 73.4 °F 94% 29.82 in 7.0 mi NNW 5.8 mph - N/A   Clear
2:42 AM 75.2 °F - 73.4 °F 94% 29.82 in 7.0 mi NNW 5.8 mph - N/A   Clear
3:42 AM 75.2 °F - 73.4 °F 94% 29.84 in 7.0 mi NNW 4.6 mph - N/A   Clear
4:46 AM 75.2 °F - 73.4 °F 94% 29.82 in 7.0 mi NNW 6.9 mph - N/A   Clear
5:49 AM 73.4 °F - 73.4 °F 100% 29.83 in 7.0 mi North 4.6 mph - N/A   Clear
6:47 AM 73.4 °F - 73.4 °F 100% 29.82 in 7.0 mi North 3.5 mph - N/A   Scattered Clouds
7:40 AM 75.2 °F - 73.4 °F 94% 29.87 in 8.0 mi NNW 9.2 mph - N/A   Scattered Clouds
8:41 AM 77.0 °F - 73.4 °F 89% 29.88 in 8.0 mi NNW 9.2 mph - N/A   Scattered Clouds
9:40 AM 78.8 °F - 73.4 °F 83% 29.91 in 8.0 mi NNW 6.9 mph - N/A   Scattered Clouds
10:43 AM 80.6 °F 85.4 °F 73.4 °F 79% 29.88 in 8.0 mi North 6.9 mph - N/A   Scattered Clouds
11:42 AM 82.4 °F 88.2 °F 73.4 °F 74% 29.88 in 8.0 mi North 5.8 mph - N/A   Mostly Cloudy
12:48 PM 82.4 °F 88.2 °F 73.4 °F 74% 29.83 in 8.0 mi North 6.9 mph - N/A   Mostly Cloudy
1:44 PM 84.2 °F 87.3 °F 68.0 °F 58% 29.82 in 8.0 mi Calm Calm - N/A   Mostly Cloudy
2:41 PM 84.2 °F 88.4 °F 69.8 °F 62% 29.80 in 8.0 mi Calm Calm - N/A   Mostly Cloudy
3:48 PM 84.2 °F 89.6 °F 71.6 °F 66% 29.81 in 8.0 mi WNW 4.6 mph - N/A   Mostly Cloudy
4:44 PM 82.4 °F 87.2 °F 71.6 °F 70% 29.79 in 8.0 mi Calm Calm - N/A   Mostly Cloudy
5:43 PM 78.8 °F - 71.6 °F 78% 29.79 in 8.0 mi East 3.5 mph - N/A   Scattered Clouds
6:50 PM 75.2 °F - 71.6 °F 89% 29.78 in 8.0 mi Calm Calm - N/A   Scattered Clouds
7:50 PM 73.4 °F - 71.6 °F 94% 29.83 in 7.0 mi Calm Calm - N/A   Scattered Clouds
8:48 PM 71.6 °F - 71.6 °F 100% 29.85 in 7.0 mi Calm Calm - N/A   Partly Cloudy
9:53 PM 71.6 °F - 71.6 °F 100% 29.90 in 7.0 mi Calm Calm - N/A   Scattered Clouds
11:04 PM 71.6 °F - 71.6 °F 100% 29.87 in 7.0 mi Calm Calm - N/A   Scattered Clouds
11:51 PM 71.6 °F - 71.6 °F 100% 29.86 in 7.0 mi Calm Calm - N/A   Scattered Clouds